Provincetown, MA

5:06 AM EDT on June 28, 2017 (GMT -0400)
Provincetown Municipal

Weather History for KPVC - April, 2013

Change the Weather History Date:

Thursday, April 4, 2013

  Actual Average Record
Temperature  
Mean Temperature 40 °F -  
Max Temperature 46 °F 45 °F 64 °F (1952)
Min Temperature 35 °F 35 °F 19 °F (1954)
Degree Days  
Heating Degree Days 24    
Moisture  
Dew Point 23 °F    
Average Humidity 53    
Maximum Humidity 81    
Minimum Humidity 29    
Precipitation  
Precipitation 0.00 in - - ()
Sea Level Pressure  
Sea Level Pressure 30.20 in    
Wind  
Wind Speed 19 mph (WSW)    
Max Wind Speed 24 mph    
Max Gust Speed 33 mph    
Visibility 10 miles    
Events      
Averages and records for this station are not official NWS values.
T = Trace of Precipitation, MM = Missing Value Source: NWS Daily Summary

Daily Weather History Graph

Daily Weather History Graph

Search for Another Location

Airport or City:

Trip Planner

Search our weather history database for the weather conditions in past years. The results will help you decide how hot, cold, wet, or windy it might be!

Date:

Astronomy

Apr. 04, 2013 Rise Set
Actual Time 6:18 AM EDT 7:10 PM EDT
Civil Twilight 5:49 AM EDT 7:38 PM EDT
Nautical Twilight 5:16 AM EDT 8:12 PM EDT
Astronomical Twilight 4:41 AM EDT 8:47 PM EDT
Moon 2:48 AM EDT (4/4) 1:19 PM EDT (4/4)
Length of Visible Light 13h 48m
Length of Day
12h 52m
Waning Crescent, 34% of the Moon is Illuminated
Apr 4
Waning Crescent
Apr 10
New
Apr 18
First Quarter
Apr 25
Full
May 2
Last Quarter

Hourly Weather History & Observations

Time (EDT) Temp. Windchill Dew Point Humidity Pressure Visibility Wind Dir Wind Speed Gust Speed Precip Events Conditions
12:15 AM 35.6 °F 24.2 °F 21.2 °F 56% 30.14 in 10.0 mi WNW 21.9 mph 31.1 mph N/A   Clear
12:35 AM 35.6 °F 25.2 °F 19.4 °F 52% 30.16 in 10.0 mi West 18.4 mph 29.9 mph N/A   Clear
12:55 AM 35.6 °F 24.8 °F 19.4 °F 52% 30.16 in 10.0 mi WNW 19.6 mph 27.6 mph N/A   Clear
1:15 AM 35.6 °F 25.2 °F 19.4 °F 52% 30.17 in 10.0 mi WNW 18.4 mph 26.5 mph N/A   Clear
1:35 AM 35.6 °F 24.5 °F 19.4 °F 52% 30.18 in 10.0 mi West 20.7 mph 26.5 mph N/A   Clear
1:55 AM 35.6 °F 24.5 °F 17.6 °F 48% 30.18 in 10.0 mi West 20.7 mph 26.5 mph N/A   Clear
2:15 AM 35.6 °F 24.5 °F 19.4 °F 52% 30.17 in 10.0 mi WNW 20.7 mph 25.3 mph N/A   Clear
2:35 AM 35.6 °F 23.7 °F 19.4 °F 52% 30.17 in 10.0 mi WNW 24.2 mph 28.8 mph N/A   Clear
2:55 AM 35.6 °F 25.2 °F 19.4 °F 52% 30.17 in 10.0 mi WNW 18.4 mph 27.6 mph N/A   Clear
3:15 AM 35.6 °F 24.2 °F 19.4 °F 52% 30.18 in 10.0 mi WNW 21.9 mph 29.9 mph N/A   Clear
3:35 AM 35.6 °F 24.2 °F 19.4 °F 52% 30.18 in 10.0 mi WNW 21.9 mph 32.2 mph N/A   Clear
3:55 AM 35.6 °F 24.2 °F 19.4 °F 52% 30.18 in 10.0 mi NW 21.9 mph 28.8 mph N/A   Clear
4:15 AM 35.6 °F 24.2 °F 19.4 °F 52% 30.18 in 10.0 mi NW 21.9 mph 32.2 mph N/A   Clear
4:35 AM 35.6 °F 24.2 °F 17.6 °F 48% 30.19 in 10.0 mi NW 21.9 mph 29.9 mph N/A   Clear
4:55 AM 35.6 °F 24.2 °F 17.6 °F 48% 30.19 in 10.0 mi NW 21.9 mph 27.6 mph N/A   Clear
5:15 AM 35.6 °F 25.2 °F 17.6 °F 48% 30.20 in 10.0 mi NNW 18.4 mph 26.5 mph N/A   Clear
5:35 AM 35.6 °F 25.2 °F 19.4 °F 52% 30.23 in 10.0 mi NW 18.4 mph 25.3 mph N/A   Clear
5:55 AM 35.6 °F 24.0 °F 19.4 °F 52% 30.21 in 10.0 mi NW 23.0 mph 27.6 mph N/A   Clear
6:15 AM 35.6 °F 24.8 °F 17.6 °F 48% 30.22 in 10.0 mi NW 19.6 mph 29.9 mph N/A   Clear
6:35 AM 35.6 °F 24.5 °F 17.6 °F 48% 30.24 in 10.0 mi NW 20.7 mph 25.3 mph N/A   Clear
6:55 AM 35.6 °F 24.5 °F 19.4 °F 52% 30.25 in 10.0 mi WNW 20.7 mph 26.5 mph N/A   Clear
7:15 AM 35.6 °F 25.2 °F 17.6 °F 48% 30.27 in 10.0 mi WNW 18.4 mph 27.6 mph N/A   Clear
7:35 AM 35.6 °F 24.8 °F 19.4 °F 52% 30.28 in 10.0 mi WNW 19.6 mph 26.5 mph N/A   Clear
7:55 AM 35.6 °F 25.2 °F 17.6 °F 48% 30.29 in 10.0 mi WNW 18.4 mph 26.5 mph N/A   Clear
8:15 AM 37.4 °F 27.8 °F 17.6 °F 45% 30.29 in 10.0 mi WNW 17.3 mph 23.0 mph N/A   Clear
8:35 AM 35.6 °F 25.2 °F 19.4 °F 52% 30.29 in 10.0 mi WNW 18.4 mph 23.0 mph N/A   Clear
8:55 AM 37.4 °F 28.2 °F 21.2 °F 52% 30.29 in 10.0 mi WNW 16.1 mph 21.9 mph N/A   Clear
9:15 AM 37.4 °F 27.8 °F 19.4 °F 48% 30.29 in 10.0 mi WNW 17.3 mph 20.7 mph N/A   Clear
9:35 AM 37.4 °F 27.2 °F 19.4 °F 48% 30.29 in 10.0 mi WNW 19.6 mph 24.2 mph N/A   Clear
9:55 AM 37.4 °F 27.8 °F 17.6 °F 45% 30.29 in 10.0 mi WNW 17.3 mph 23.0 mph N/A   Clear
10:15 AM 39.2 °F 30.2 °F 19.4 °F 45% 30.29 in 10.0 mi WNW 17.3 mph 20.7 mph N/A   Clear
10:35 AM 39.2 °F 30.5 °F 17.6 °F 42% 30.29 in 10.0 mi WNW 16.1 mph 21.9 mph N/A   Clear
10:55 AM 39.2 °F 30.5 °F 17.6 °F 42% 30.29 in 10.0 mi WNW 16.1 mph - N/A   Clear
11:15 AM 39.2 °F 30.8 °F 17.6 °F 42% 30.28 in 10.0 mi West 15.0 mph - N/A   Clear
11:35 AM 39.2 °F 32.5 °F 17.6 °F 42% 30.27 in 10.0 mi WNW 10.4 mph - N/A   Clear
11:55 AM 41.0 °F 34.7 °F 19.4 °F 42% 30.27 in 10.0 mi WNW 10.4 mph - N/A   Clear
12:35 PM 42.8 °F 38.6 °F 19.4 °F 39% 30.26 in 10.0 mi WSW 6.9 mph - N/A   Clear
12:55 PM 42.8 °F 41.1 °F 15.8 °F 34% 30.25 in 10.0 mi SW 3.5 mph - N/A   Clear
1:15 PM 44.6 °F 40.2 °F 17.6 °F 34% 30.24 in 10.0 mi SSW 8.1 mph - N/A   Clear
1:35 PM 44.6 °F 40.2 °F 17.6 °F 34% 30.23 in 10.0 mi South 8.1 mph - N/A   Clear
1:55 PM 44.6 °F 38.8 °F 17.6 °F 34% 30.23 in 10.0 mi South 11.5 mph - N/A   Clear
2:15 PM 46.4 °F 40.4 °F 15.8 °F 29% 30.22 in 10.0 mi SSW 13.8 mph 18.4 mph N/A   Clear
2:35 PM 46.4 °F 39.8 °F 17.6 °F 32% 30.21 in 10.0 mi South 16.1 mph 19.6 mph N/A   Clear
2:55 PM 46.4 °F 40.4 °F 21.2 °F 37% 30.20 in 10.0 mi SSW 13.8 mph 18.4 mph N/A   Clear
3:15 PM 46.4 °F 39.8 °F 26.6 °F 46% 30.19 in 10.0 mi SSW 16.1 mph 19.6 mph N/A   Clear
3:35 PM 46.4 °F 39.8 °F 28.4 °F 50% 30.18 in 10.0 mi SSW 16.1 mph 20.7 mph N/A   Clear
3:55 PM 46.4 °F 39.8 °F 28.4 °F 50% 30.17 in 10.0 mi SSW 16.1 mph 20.7 mph N/A   Clear
4:15 PM 46.4 °F 39.2 °F 28.4 °F 50% 30.16 in 10.0 mi SSW 18.4 mph 24.2 mph N/A   Clear
4:35 PM 44.6 °F 36.9 °F 26.6 °F 49% 30.15 in 10.0 mi SSW 18.4 mph 27.6 mph N/A   Clear
4:55 PM 44.6 °F 36.9 °F 28.4 °F 53% 30.14 in 10.0 mi SW 18.4 mph 26.5 mph N/A   Clear
5:15 PM 44.6 °F 36.1 °F 26.6 °F 49% 30.14 in 10.0 mi SSW 21.9 mph 27.6 mph N/A   Clear
5:35 PM 44.6 °F 37.2 °F 28.4 °F 53% 30.14 in 10.0 mi SSW 17.3 mph 24.2 mph N/A   Clear
5:55 PM 42.8 °F 34.8 °F 28.4 °F 57% 30.14 in 10.0 mi SSW 17.3 mph 26.5 mph N/A   Clear
6:15 PM 42.8 °F 34.8 °F 28.4 °F 57% 30.14 in 10.0 mi SSW 17.3 mph 24.2 mph N/A   Clear
6:35 PM 41.0 °F 32.2 °F 28.4 °F 61% 30.13 in 10.0 mi SSW 18.4 mph 25.3 mph N/A   Clear
6:55 PM 39.2 °F 29.6 °F 28.4 °F 65% 30.13 in 10.0 mi SSW 19.6 mph 24.2 mph N/A   Clear
7:15 PM 39.2 °F 29.0 °F 28.4 °F 65% 30.13 in 10.0 mi SSW 21.9 mph 29.9 mph N/A   Clear
7:35 PM 39.2 °F 29.6 °F 28.4 °F 65% 30.14 in 10.0 mi SW 19.6 mph 27.6 mph N/A   Clear
7:55 PM 39.2 °F 29.6 °F 28.4 °F 65% 30.14 in 10.0 mi SW 19.6 mph 25.3 mph N/A   Clear
8:15 PM 39.2 °F 28.7 °F 28.4 °F 65% 30.14 in 10.0 mi SSW 23.0 mph 31.1 mph N/A   Clear
8:35 PM 39.2 °F 29.0 °F 26.6 °F 61% 30.15 in 10.0 mi SSW 21.9 mph 27.6 mph N/A   Clear
8:55 PM 39.2 °F 29.6 °F 30.2 °F 70% 30.15 in 10.0 mi SW 19.6 mph 26.5 mph N/A   Clear
9:15 PM 39.2 °F 28.7 °F 30.2 °F 70% 30.15 in 10.0 mi SW 23.0 mph 32.2 mph N/A   Clear
9:35 PM 39.2 °F 28.5 °F 32.0 °F 75% 30.15 in 10.0 mi SW 24.2 mph 33.4 mph N/A   Clear
9:55 PM 39.2 °F 29.6 °F 32.0 °F 75% 30.14 in 10.0 mi SW 19.6 mph 28.8 mph N/A   Clear
10:15 PM 39.2 °F 29.8 °F 33.8 °F 81% 30.13 in 10.0 mi SW 18.4 mph - N/A   Clear
10:35 PM 39.2 °F 29.6 °F 32.0 °F 75% 30.13 in 10.0 mi SSW 19.6 mph 24.2 mph N/A   Clear
10:55 PM 39.2 °F 30.2 °F 33.8 °F 81% 30.12 in 10.0 mi SSW 17.3 mph - N/A   Clear
11:15 PM 39.2 °F 29.6 °F 33.8 °F 81% 30.11 in 10.0 mi SSW 19.6 mph 24.2 mph N/A   Clear
11:35 PM 39.2 °F 29.8 °F 33.8 °F 81% 30.10 in 10.0 mi SSW 18.4 mph 24.2 mph N/A   Clear
11:55 PM 39.2 °F 30.2 °F 33.8 °F 81% 30.10 in 10.0 mi SW 17.3 mph 26.5 mph N/A   Clear